GFSNIL_sfc_temp_006.txt.gz
Temp
64 64 64 61 60 60 59 60 60 60 61 60 58 56 53 55 55 54 54 52 52 52
62 60 59 59 60 59 59 59 59 58 58 56 55 53 56 56 54 54 53 52 52 52
60 60 60 59 57 57 57 58 58 57 56 54 54 56 56 55 55 53 52 53 51 50
60 59 59 58 57 56 56 56 56 56 55 54 54 55 53 53 53 51 51 52 50 49
60 58 57 57 56 55 54 55 54 54 54 54 54 53 52 52 52 51 50 49 49 48
59 57 56 56 55 55 54 53 53 54 52 52 52 52 52 52 51 50 49 48 47 46
57 56 55 55 54 53 53 52 53 53 52 51 52 52 51 50 49 49 48 47 46 45
56 56 55 54 53 53 52 52 53 51 51 51 50 50 48 47 47 47 45 45 45 44
55 54 53 53 52 52 52 52 52 51 49 49 50 36 35 38 45 45 43 42 42 42
54 52 53 53 53 52 51 52 51 51 49 48 47 35 34 34 43 43 42 40 40 39
53 52 53 53 52 52 51 50 50 50 49 47 44 34 33 33 42 42 41 39 39 38
53 53 53 52 51 52 51 50 50 49 47 45 44 33 32 33 39 38 37 38 39 36
54 52 52 52 51 51 50 49 49 46 45 37 41 31 32 33 38 34 35 37 37 33
53 52 52 51 51 50 49 48 44 41 42 41 39 38 31 31 34 34 33 34 35 36

GFSNIL_sfc_temp_012.txt.gz
Temp
61 59 58 56 56 54 53 52 53 52 53 53 53 51 50 47 46 46 44 43 43 43
58 57 56 57 57 54 53 56 52 52 52 52 52 51 48 46 46 45 45 43 46 43
58 57 57 56 54 53 52 53 52 52 51 51 51 50 49 48 48 46 44 46 44 41
57 57 57 55 54 53 52 52 52 52 51 50 50 50 48 47 47 45 44 45 42 41
58 58 56 55 54 53 52 52 51 51 51 51 50 48 47 46 46 44 41 42 42 41
58 56 55 54 54 53 52 51 50 51 50 50 49 48 47 46 46 44 43 43 40 41
56 57 55 54 53 52 52 50 49 49 50 49 49 49 48 47 43 42 43 41 41 40
56 56 56 53 53 52 51 50 50 49 49 48 48 49 42 42 41 39 39 40 41 40
57 57 53 52 51 51 50 50 49 48 48 47 50 37 37 39 36 39 39 37 37 37
55 52 51 52 52 50 49 49 48 48 47 46 38 37 37 35 35 36 36 35 35 36
52 51 53 52 51 50 49 48 47 47 47 46 39 36 36 35 32 34 35 34 34 33
51 53 52 50 49 48 48 47 46 48 46 43 35 36 35 34 32 33 33 35 35 34
51 52 50 48 48 47 47 47 47 45 44 38 33 35 35 34 29 30 30 32 33 34
50 49 49 47 47 45 44 43 39 37 38 38 35 32 35 34 29 28 28 28 28 29

GFSNIL_sfc_temp_018.txt.gz
Temp
52 50 49 49 47 47 46 46 47 48 48 46 47 46 43 42 41 40 39 39 38 37
50 51 50 49 48 46 46 49 49 47 48 45 45 44 43 41 41 40 39 38 38 37
51 51 50 48 47 49 49 49 48 48 46 45 45 44 43 41 41 40 38 38 38 37
49 49 48 49 49 48 47 49 49 48 46 47 45 45 43 43 42 40 39 39 38 38
51 51 49 48 47 48 48 48 48 46 47 46 45 44 43 42 42 40 39 38 39 39
50 50 51 50 49 47 48 47 47 47 45 45 44 44 44 42 41 40 39 39 38 38
51 53 52 49 46 45 45 44 45 46 46 46 45 45 44 41 38 38 39 39 37 36
53 53 50 45 45 45 44 45 46 45 46 46 45 45 41 40 38 37 36 36 37 35
52 49 47 44 44 45 46 47 45 45 44 43 46 42 40 38 35 36 35 34 33 33
49 46 46 46 44 45 45 45 45 44 43 41 41 40 40 38 34 36 34 32 32 33
46 46 46 44 44 43 44 43 42 42 42 40 41 38 38 37 34 33 33 31 30 30
46 45 44 42 41 42 42 41 39 41 41 40 36 37 37 34 31 32 31 32 32 31
44 44 42 41 41 41 40 41 41 39 39 38 34 36 36 35 28 29 28 29 30 34
44 42 41 41 42 41 38 37 34 34 34 34 32 32 36 36 29 28 28 28 27 27

GFSNIL_sfc_temp_021.txt.gz
Temp
54 54 54 51 49 45 45 44 45 46 48 48 48 43 42 43 39 40 38 38 37 37
53 53 51 49 49 44 44 47 45 48 47 48 47 43 42 42 40 39 38 37 37 36
53 51 51 49 48 48 47 49 47 47 47 47 46 46 44 40 40 40 38 37 36 36
49 48 49 48 49 49 48 48 48 47 47 47 46 44 42 41 41 39 38 38 37 37
50 49 48 50 50 49 48 48 48 47 47 47 46 45 43 41 41 38 37 37 36 37
48 49 49 50 49 48 48 45 46 46 46 46 45 43 42 41 39 37 37 38 37 36
49 49 49 50 48 48 47 45 45 46 46 45 43 43 42 41 39 37 37 37 36 35
50 49 51 48 47 45 45 46 46 45 45 43 43 44 40 39 37 36 36 35 36 35
49 51 47 46 45 45 45 45 45 45 43 41 45 43 41 39 36 36 35 33 34 35
48 46 45 45 45 44 44 43 43 42 42 42 41 40 41 39 35 34 33 34 34 32
46 44 44 44 43 42 42 41 40 41 41 39 39 39 39 37 33 33 33 32 31 30
45 43 43 41 41 40 39 40 40 39 39 38 37 38 38 35 31 31 31 32 31 30
44 43 41 40 40 40 40 40 39 37 36 36 35 37 37 34 28 29 29 29 30 35
43 42 41 40 40 40 39 36 33 32 32 33 32 32 37 36 30 30 28 29 28 29

GFSNIL_sfc_temp_024.txt.gz
Temp
54 54 53 51 49 47 48 45 44 47 49 47 48 47 45 43 41 40 39 38 37 37
52 51 50 51 50 47 47 48 48 48 48 47 47 46 44 43 42 40 38 37 37 36
51 51 49 49 47 48 48 48 48 47 47 46 45 45 44 42 40 38 37 38 36 35
49 49 49 49 48 49 49 49 48 47 46 46 45 45 43 41 39 38 38 37 36 36
47 48 48 48 49 48 49 48 48 47 46 46 45 44 42 40 40 38 37 36 35 36
49 48 49 49 49 49 48 47 47 46 46 46 45 44 41 40 39 37 37 36 35 36
48 49 49 49 46 45 47 46 46 46 46 46 45 44 43 41 38 37 37 36 36 35
47 48 47 44 46 46 45 46 46 45 45 44 42 44 41 39 38 36 35 35 35 34
46 45 44 43 44 42 44 44 43 43 42 41 44 42 41 40 36 36 34 34 33 34
44 42 43 44 44 43 43 43 42 42 41 40 40 40 40 39 35 34 35 33 34 33
42 43 44 44 43 42 42 42 41 40 40 39 40 39 39 38 34 33 33 33 33 32
44 44 43 42 41 41 40 40 40 40 39 39 37 38 38 36 31 31 31 33 32 31
44 43 41 41 40 40 40 39 39 38 38 36 33 36 37 36 28 29 30 30 31 35
43 42 42 41 40 39 39 37 34 33 32 33 33 32 36 37 30 30 29 30 29 31

GFSNIL_sfc_temp_027.txt.gz
Temp
59 57 58 58 55 52 54 54 55 55 56 54 51 55 55 53 55 53 53 52 52 53
61 59 58 56 55 54 53 54 52 55 55 50 52 51 53 54 53 52 52 52 51 51
59 58 57 55 54 54 53 54 54 54 49 52 52 53 51 51 53 51 52 52 50 50
57 57 57 55 55 52 50 50 51 48 53 51 50 53 52 52 51 50 51 50 50 49
57 56 55 54 51 50 48 51 50 51 50 53 51 52 52 50 51 49 49 50 49 49
56 55 55 54 52 51 51 49 51 53 53 52 52 52 50 48 49 48 49 50 49 49
55 55 55 55 53 50 51 49 52 52 53 51 51 49 46 47 49 48 49 48 47 48
55 55 55 52 48 48 47 48 48 46 48 47 45 45 44 46 48 48 48 47 47 47
54 53 50 48 46 46 47 46 50 46 45 46 46 40 40 42 48 47 46 46 47 47
52 50 47 46 46 44 46 46 45 45 45 44 45 40 40 39 46 46 46 46 47 46
50 49 48 47 44 44 44 43 43 43 46 45 43 39 39 38 45 46 46 46 46 46
49 48 47 46 43 43 43 42 44 46 43 41 40 39 38 38 43 43 44 45 44 44
48 47 45 46 44 45 46 45 43 39 39 39 43 40 37 38 42 40 41 43 42 37
49 48 48 45 43 41 40 39 39 41 43 43 42 43 38 37 40 39 39 40 41 41

GFSNIL_sfc_temp_030.txt.gz
Temp
71 69 67 65 60 58 57 55 60 54 57 60 56 57 52 53 56 60 60 59 59 60
71 69 66 63 61 60 59 61 56 53 55 57 55 53 51 56 59 57 58 58 58 58
71 69 63 62 59 57 59 61 59 55 55 50 50 50 54 59 58 58 57 59 58 57
70 64 61 61 60 61 63 61 57 52 48 49 51 56 55 56 58 53 54 57 56 56
66 64 63 63 62 61 61 54 50 49 50 53 58 57 54 56 54 51 50 54 55 55
67 64 62 60 58 56 52 49 50 51 51 53 53 55 53 52 48 47 51 56 55 55
65 65 64 61 58 58 56 52 52 51 53 51 55 56 50 48 48 51 54 53 54 55
65 65 64 62 62 61 57 54 50 50 49 53 51 51 48 48 47 52 53 54 55 55
62 62 60 58 55 52 50 50 47 50 46 48 49 40 40 41 47 51 52 52 53 55
60 58 57 56 54 50 48 47 46 47 48 47 48 41 40 39 45 46 49 51 52 52
58 56 55 54 51 46 47 46 47 47 48 48 49 40 39 38 41 47 50 51 52 51
56 56 55 53 51 51 51 50 48 48 49 46 47 40 39 40 48 48 49 51 51 51
56 54 53 52 50 51 51 49 47 44 42 39 41 41 40 41 46 45 46 48 49 42
53 51 50 49 45 43 41 41 43 46 49 49 48 48 40 39 43 43 44 44 46 48

GFSNIL_sfc_temp_033.txt.gz
Temp
74 74 74 71 70 66 61 55 56 55 59 58 54 55 55 52 50 52 54 58 61 61
74 72 74 72 71 65 60 60 59 62 60 56 54 51 49 49 52 50 57 59 58 58
75 74 71 69 64 61 61 61 62 60 57 57 54 49 50 49 50 54 54 58 55 56
72 69 69 66 63 62 61 62 63 59 58 54 50 48 49 51 55 56 57 54 53 55
67 64 63 62 63 61 61 63 61 61 56 51 49 50 52 51 54 56 52 49 51 54
65 63 61 60 60 59 59 57 56 53 50 49 49 51 51 54 56 51 49 49 52 55
69 64 63 62 61 58 55 52 50 50 49 48 51 53 53 51 50 48 48 49 53 55
68 68 66 63 61 59 56 55 53 49 49 49 51 52 51 49 47 47 47 50 54 54
67 67 65 63 61 59 58 56 53 51 53 49 50 41 41 46 49 46 46 47 50 53
64 62 60 60 58 57 55 54 50 48 47 47 48 40 40 39 45 43 43 43 45 49
61 60 59 58 56 53 52 51 51 51 52 53 52 41 40 38 41 40 42 46 50 51
60 59 58 56 55 55 54 53 52 53 52 50 49 40 39 39 42 47 48 50 51 51
60 58 55 52 51 50 51 50 51 47 46 42 45 43 39 41 45 44 45 47 49 43
56 53 52 51 50 49 49 49 47 48 51 51 49 48 38 37 41 37 34 37 40 43

GFSNIL_sfc_temp_036.txt.gz
Temp
73 71 68 67 64 63 62 60 57 56 55 54 53 53 53 51 49 49 48 48 49 52
71 66 63 64 65 62 59 58 56 55 54 54 53 52 50 49 48 48 48 48 50 52
66 66 65 66 64 60 57 57 56 55 55 53 52 51 50 48 49 48 48 50 51 51
65 62 63 67 62 59 58 57 57 56 54 53 52 51 49 48 48 48 49 49 48 49
67 67 64 61 61 59 59 58 57 57 55 54 51 50 48 48 50 48 47 47 47 47
64 61 61 59 58 57 56 55 55 54 53 50 48 48 48 49 47 47 47 46 46 47
62 61 59 58 56 53 52 50 49 49 49 48 48 49 49 48 47 46 46 46 47 47
62 61 60 57 56 54 52 50 49 48 47 47 48 49 48 47 45 45 45 45 48 48
64 64 61 58 56 54 52 52 49 47 46 46 49 42 44 45 46 46 45 42 45 46
62 59 57 56 55 52 50 49 47 47 46 45 44 41 41 40 42 41 40 41 42 43
59 57 56 54 51 48 47 46 45 46 46 46 47 40 40 38 39 39 41 41 41 41
57 55 54 51 50 49 48 48 48 49 48 48 43 40 39 39 39 41 41 44 43 41
58 55 52 49 47 48 49 48 48 45 43 41 43 40 38 39 35 33 31 35 38 37
53 50 50 50 48 46 45 44 41 41 43 45 39 36 36 36 31 28 29 30 31 31

GFSNIL_sfc_temp_039.txt.gz
Temp
67 66 67 61 59 59 61 61 57 55 55 54 54 52 51 50 49 50 49 49 49 49
69 66 62 62 62 62 62 57 55 55 53 51 50 50 49 48 49 49 49 48 49 48
67 67 63 63 59 59 56 57 54 54 53 52 50 49 50 49 49 49 48 48 48 48
65 65 66 62 60 58 56 56 55 55 53 50 49 50 50 49 49 48 47 48 48 48
61 61 58 59 57 56 55 56 56 54 53 52 51 50 49 48 49 47 46 46 46 47
61 62 59 58 57 56 55 55 55 54 52 51 49 48 48 48 48 47 47 46 45 46
58 57 57 56 55 53 53 52 52 52 51 50 48 49 48 48 46 45 46 46 46 47
57 57 55 54 53 51 51 50 49 48 47 48 47 48 47 47 45 45 45 45 47 47
58 57 56 54 52 51 49 49 48 46 46 45 47 41 42 45 45 45 44 43 42 43
55 53 51 51 52 50 48 44 42 41 41 41 41 41 41 41 42 40 38 38 38 43
53 51 49 47 45 43 42 41 40 41 41 41 41 40 40 38 38 37 39 41 40 37
51 49 47 45 43 42 42 41 41 42 41 41 40 40 38 38 38 40 37 38 36 35
51 49 46 43 42 42 42 43 45 43 43 40 40 38 38 37 30 29 28 31 33 34
48 46 45 43 42 41 40 40 37 38 38 36 34 34 35 34 28 27 27 27 27 27

GFSNIL_sfc_temp_042.txt.gz
Temp
64 64 63 64 60 61 62 62 60 60 60 59 55 54 55 53 52 50 50 50 50 50
65 64 63 62 60 60 63 62 60 58 56 55 54 54 52 51 50 50 50 50 50 49
66 65 65 62 60 59 56 57 56 55 54 53 52 51 51 50 50 50 50 50 48 48
65 65 63 60 59 57 57 57 55 54 53 52 51 51 50 50 49 49 48 48 48 47
60 59 59 59 58 58 58 57 56 54 54 53 51 51 49 48 49 48 47 46 46 46
61 60 61 60 59 59 59 58 55 55 53 51 51 49 48 49 48 48 47 46 46 46
60 61 62 62 59 57 56 54 54 53 52 50 49 49 49 48 47 46 46 46 46 46
60 61 59 56 55 54 53 52 52 51 50 48 48 48 47 47 45 45 44 45 46 46
57 57 55 53 51 50 50 49 48 47 46 46 47 41 42 45 45 45 44 43 43 43
55 54 52 52 50 49 47 46 45 44 45 44 44 41 41 41 44 42 41 39 40 41
51 51 50 48 45 43 43 43 40 39 40 41 41 39 39 38 38 36 38 39 38 37
49 48 46 44 42 41 41 40 39 40 39 39 38 39 38 37 35 35 34 36 37 35
48 46 43 41 40 40 40 40 41 39 38 37 36 37 38 38 35 32 31 31 31 33
46 44 43 41 41 40 39 38 36 34 35 35 35 35 35 34 30 28 28 27 27 27

GFSNIL_sfc_temp_048.txt.gz
Temp
57 56 56 56 56 54 54 54 55 55 56 56 56 55 54 54 55 54 53 53 52 53
57 57 56 55 53 53 54 55 56 56 55 55 56 56 55 55 54 54 54 52 53 53
57 57 57 54 54 55 55 56 56 56 56 57 57 57 56 57 57 56 54 53 51 51
57 57 56 57 58 57 57 57 57 57 57 57 57 57 56 55 52 52 53 52 51 50
58 59 58 59 60 60 60 58 58 58 57 58 57 54 53 52 51 51 50 50 50 48
58 58 58 59 60 61 58 59 59 59 57 57 53 51 51 51 51 50 50 49 48 47
58 59 60 60 60 60 59 58 59 59 58 58 53 51 50 50 49 48 48 47 48 47
59 60 60 60 60 60 58 58 60 58 56 53 52 50 49 49 48 47 45 46 46 46
60 60 59 60 59 59 59 59 58 56 52 50 50 44 44 46 47 46 45 43 43 43
59 59 59 60 59 57 56 53 52 50 49 48 48 42 42 43 45 44 43 42 41 40
56 57 57 54 53 49 49 50 47 47 46 45 44 40 40 39 42 40 40 41 39 36
55 51 50 49 48 46 47 46 45 44 44 42 40 38 38 39 38 36 34 35 35 34
51 49 48 45 43 42 42 40 40 37 38 38 37 37 37 37 35 32 31 31 32 33
48 46 43 42 41 40 38 35 34 33 33 34 35 35 36 36 34 32 31 30 29 30

GFSNIL_sfc_temp_051.txt.gz
Temp
64 64 64 65 66 64 63 64 64 64 65 66 65 66 65 64 64 63 62 61 60 55
63 63 63 64 63 63 64 64 64 64 64 64 65 65 64 63 62 61 61 59 57 54
62 63 63 63 61 62 63 63 64 65 65 65 64 64 63 62 62 61 57 58 55 54
62 62 62 61 61 62 62 62 63 64 64 64 64 64 62 63 62 56 57 57 55 55
61 61 61 60 62 62 62 61 62 63 64 64 64 64 61 59 56 55 54 54 52 53
60 60 60 61 62 63 63 63 64 63 62 63 61 62 60 60 55 53 55 56 53 52
61 61 62 62 63 63 64 64 65 64 64 63 62 61 58 57 58 57 56 55 51 50
62 63 64 63 64 63 63 64 65 64 64 64 62 57 56 55 53 53 51 50 48 48
64 63 63 64 63 64 64 64 63 63 62 60 57 48 46 50 52 52 47 45 44 44
64 63 63 64 64 64 64 64 62 61 59 56 55 44 44 43 48 47 46 43 41 41
64 63 64 63 62 62 61 59 56 53 51 49 47 41 41 41 44 43 43 43 41 39
63 63 62 60 53 50 49 47 46 46 45 44 41 39 38 40 39 37 36 37 37 36
61 55 52 49 46 44 43 41 40 38 39 38 38 37 38 38 36 33 32 33 33 33
53 49 46 43 43 41 38 36 34 33 34 35 36 36 37 37 36 33 31 30 30 30

GFSNIL_sfc_temp_054.txt.gz
Temp
69 70 69 70 71 71 70 71 67 70 71 71 72 72 72 72 72 71 70 69 70 71
69 70 71 72 72 72 73 74 72 71 70 71 71 71 71 71 70 71 70 70 70 69
70 71 72 72 71 72 72 72 71 70 69 71 71 71 70 70 71 71 71 70 68 66
71 71 71 71 71 71 71 71 71 71 71 70 71 71 71 70 71 69 69 67 65 63
70 70 69 69 70 70 70 70 71 71 71 71 73 73 71 69 69 69 67 66 62 59
68 69 69 69 69 70 69 70 70 70 70 69 71 70 68 65 69 68 67 65 59 57
69 69 69 69 69 69 70 69 69 70 70 70 70 69 69 68 67 67 66 65 61 62
70 70 70 69 69 69 69 69 70 70 70 70 70 70 69 69 67 65 61 58 59 61
71 70 69 70 69 69 68 69 69 69 69 69 69 53 48 56 61 60 57 51 50 50
72 70 69 70 70 69 69 69 69 69 69 68 69 45 45 45 60 54 52 48 45 43
71 70 71 70 69 69 69 68 67 66 65 63 64 45 44 42 49 46 45 44 43 40
72 70 70 69 68 68 66 63 57 55 53 51 46 42 40 42 42 39 38 39 39 38
72 71 70 69 65 55 51 43 41 39 40 39 39 38 39 40 37 34 32 32 33 34
71 67 60 54 48 43 39 37 35 34 35 36 37 37 37 37 35 33 31 31 30 31

GFSNIL_sfc_temp_057.txt.gz
Temp
67 66 68 66 68 67 64 66 67 71 73 73 73 72 71 71 70 68 68 69 70 70
64 65 68 69 70 70 70 71 70 70 71 72 72 72 71 71 70 71 70 70 70 70
65 66 70 70 71 71 71 72 71 70 70 70 71 71 71 70 71 70 70 71 70 70
69 68 68 70 72 73 73 73 73 73 72 72 72 72 71 70 70 70 70 70 70 69
72 72 70 70 72 73 73 74 74 74 74 73 73 73 72 70 71 70 69 69 68 68
73 73 72 72 73 74 73 73 73 74 73 73 72 72 72 71 71 70 70 69 68 68
73 73 73 73 73 73 73 73 73 73 73 72 73 73 73 73 72 71 69 69 66 64
73 74 73 73 73 73 72 73 73 72 72 72 72 72 71 71 70 67 65 66 69 68
76 74 73 73 72 72 71 72 72 71 71 70 72 57 51 60 69 66 63 62 65 65
77 75 73 73 73 72 71 72 71 70 70 70 71 50 46 46 67 66 65 64 62 51
77 75 75 73 73 71 71 70 70 70 70 69 69 47 45 44 61 62 57 55 51 45
77 76 75 73 72 71 71 70 69 69 68 63 58 43 43 44 44 41 39 40 41 39
79 77 74 73 71 71 69 63 50 42 42 39 41 41 42 43 39 35 33 34 35 35
78 76 75 74 72 56 48 41 37 35 35 36 37 37 38 38 35 33 32 32 31 32

GFSNIL_sfc_temp_060.txt.gz
Temp
63 63 62 62 63 62 63 65 66 64 64 65 67 67 65 63 63 63 62 62 63 61
63 62 62 63 64 63 64 66 64 65 65 66 66 66 65 64 63 62 63 64 62 63
63 64 64 64 63 64 64 64 65 64 65 66 66 66 65 64 64 63 64 63 62 63
63 64 64 64 64 64 65 65 65 65 65 65 65 66 65 64 64 64 63 63 63 63
63 63 63 63 65 66 65 66 66 66 67 66 66 66 65 64 66 64 62 63 62 62
63 63 63 63 65 66 67 67 68 68 67 67 66 66 66 66 65 64 64 64 63 63
66 65 65 66 66 66 68 67 68 68 68 68 69 69 68 68 66 65 66 65 65 65
70 69 68 67 67 67 67 68 68 68 68 68 68 69 67 67 65 64 64 64 65 65
72 71 69 69 68 68 67 68 68 67 67 66 68 58 51 59 65 65 64 63 63 62
73 72 70 70 69 68 67 67 66 66 66 65 66 51 49 48 64 63 62 61 60 58
74 73 72 70 68 67 67 66 65 65 65 64 65 49 48 46 58 61 61 57 56 59
75 73 72 70 68 68 66 65 64 65 63 63 62 41 44 45 50 43 38 38 39 39
77 74 72 70 68 67 66 64 57 43 41 39 41 39 40 44 40 35 33 33 33 34
57 69 71 69 67 64 51 41 37 35 35 35 36 37 39 39 36 34 32 32 31 32

GFSNIL_sfc_temp_063.txt.gz
Temp
60 59 60 60 60 60 61 62 64 63 63 60 62 62 62 61 62 62 60 60 58 60
62 62 60 61 61 62 63 64 61 63 62 63 63 62 63 62 60 60 60 58 59 59
62 63 63 61 60 61 62 63 64 62 61 62 63 63 62 62 63 60 60 61 59 60
61 62 62 61 61 61 62 62 62 62 62 62 62 63 63 64 64 61 62 62 61 60
62 62 62 62 62 62 61 62 62 63 62 63 63 63 63 62 64 61 60 61 60 60
60 61 62 62 63 64 63 62 62 62 62 63 63 63 63 63 63 63 62 62 60 61
59 60 60 62 63 63 64 62 62 63 63 63 63 64 64 64 63 62 63 62 62 61
61 61 61 61 62 63 63 63 64 63 63 63 63 65 63 63 63 62 62 62 62 62
64 62 61 61 61 62 62 62 63 63 64 63 65 56 50 58 63 63 62 61 61 61
67 65 64 64 63 62 62 63 62 63 64 64 64 51 48 48 64 62 61 60 60 60
59 64 67 65 64 64 64 63 63 63 63 63 64 50 48 45 57 62 63 62 60 60
56 54 54 63 64 65 64 64 63 63 63 63 63 46 46 46 55 57 40 38 40 42
52 49 49 50 56 65 65 63 62 48 42 39 44 38 41 44 47 36 33 33 34 35
45 44 45 45 45 58 54 41 38 36 36 36 37 38 40 41 41 37 33 32 32 33

GFSNIL_sfc_temp_066.txt.gz
Temp
59 57 57 58 59 58 60 62 63 62 63 63 63 61 61 59 59 59 58 57 57 59
57 58 58 57 57 59 57 61 62 63 61 61 60 61 60 59 59 59 61 59 58 59
59 59 59 58 57 58 59 58 59 61 61 61 61 60 59 58 59 59 60 60 59 60
61 61 61 60 59 59 59 59 58 59 61 62 61 59 59 59 60 59 60 60 58 59
60 61 61 60 61 60 59 59 60 59 59 60 61 61 60 60 62 60 60 60 59 59
59 59 60 61 61 61 60 60 59 61 60 60 60 61 61 61 61 61 61 61 60 60
58 59 59 61 61 62 62 61 61 60 60 60 61 62 62 62 61 61 61 62 61 61
58 59 60 60 60 61 61 63 63 62 61 61 61 62 61 62 61 61 61 61 62 62
61 60 59 59 59 59 60 61 61 62 61 60 61 54 49 55 60 61 60 59 60 61
53 56 60 61 60 59 59 60 60 61 61 61 61 50 48 47 59 60 59 59 59 59
49 52 52 53 56 60 60 59 59 59 60 60 61 50 47 45 56 59 60 59 59 59
47 47 47 47 48 49 49 58 60 60 59 59 60 50 46 46 56 57 58 60 52 51
42 41 42 43 43 46 46 47 56 60 60 56 59 46 43 46 57 56 53 37 36 37
38 37 39 38 40 42 42 41 41 40 36 37 37 37 40 43 51 49 36 34 32 33

GFSNIL_sfc_temp_069.txt.gz
Temp
57 59 58 59 59 59 59 60 60 59 59 60 59 58 59 58 57 57 57 57 58 59
59 55 55 56 57 59 61 62 59 60 59 59 59 59 59 58 58 58 59 58 58 59
58 59 55 54 54 55 55 57 60 60 60 60 60 60 59 59 60 59 60 59 56 56
58 56 56 55 55 55 55 55 56 60 61 60 60 61 60 60 60 58 60 59 57 59
57 58 58 57 58 56 56 56 57 56 58 61 62 62 60 60 60 58 57 58 57 58
56 57 57 58 60 60 59 58 57 58 57 59 59 61 61 61 61 60 59 59 58 58
57 57 57 58 58 58 59 60 59 58 59 59 59 60 60 59 59 59 60 60 60 60
58 59 59 59 58 59 58 59 60 60 60 60 59 60 59 60 60 59 59 60 60 61
53 57 57 59 59 59 59 60 60 59 59 59 61 53 48 53 59 60 59 58 59 60
48 50 50 51 53 56 58 59 59 59 60 59 60 50 47 46 58 59 58 58 58 59
44 44 45 47 48 47 48 49 53 58 59 59 61 50 47 46 55 57 58 58 58 57
40 40 41 42 41 43 45 45 46 49 49 55 59 49 45 45 54 55 56 58 58 57
36 36 37 37 38 39 41 42 43 41 37 36 36 37 37 39 52 54 54 55 55 36
33 35 35 35 36 36 37 38 36 33 33 32 32 34 36 38 41 48 47 37 32 33

GFSNIL_sfc_temp_072.txt.gz
Temp
55 55 58 58 58 58 59 59 59 59 58 59 59 59 59 58 57 57 56 56 57 58
54 55 57 58 58 58 59 60 59 58 58 58 58 58 58 58 58 58 58 56 55 56
54 54 54 56 57 57 58 59 58 58 59 58 58 58 58 58 58 57 57 57 56 56
54 54 53 53 54 57 57 58 58 58 58 58 58 58 57 58 58 57 58 58 57 57
57 54 53 53 53 54 56 55 56 59 58 58 59 59 59 58 59 57 57 58 58 58
57 56 54 54 54 54 54 55 54 55 57 58 59 58 59 59 59 58 58 58 58 58
57 57 58 58 57 56 56 56 57 58 57 58 58 58 59 59 58 59 60 60 60 60
54 58 58 58 58 59 58 59 59 57 56 58 58 59 58 59 58 57 57 58 59 59
49 51 50 50 51 56 58 59 59 58 58 58 58 50 47 52 58 58 58 57 58 59
44 45 45 48 49 47 47 49 50 54 57 58 59 47 46 45 56 58 58 58 58 58
40 40 42 42 41 42 44 46 46 47 47 46 44 36 36 37 50 56 58 58 58 58
36 37 38 37 38 40 41 43 42 39 38 36 37 35 36 37 42 51 54 57 57 56
36 36 35 36 36 38 40 39 38 35 34 33 33 34 36 36 40 41 46 50 35 34
33 34 34 34 35 36 36 35 33 31 31 31 32 32 34 34 36 36 33 32 31 32

GFSNIL_sfc_temp_075.txt.gz
Temp
61 60 61 60 60 61 60 60 59 60 60 60 60 59 59 59 58 59 60 62 64 65
60 60 61 61 63 61 61 61 60 60 59 60 60 60 59 58 58 58 58 59 61 60
63 62 61 61 60 60 60 61 61 62 60 58 59 59 58 59 59 58 58 58 57 57
62 63 63 61 60 60 60 59 59 60 59 59 60 60 58 58 58 58 60 60 59 59
61 61 61 61 63 63 61 60 59 60 60 61 61 63 61 60 58 57 57 58 58 57
60 60 60 61 62 63 63 63 62 61 60 61 63 64 61 62 63 62 61 60 59 59
58 59 59 60 61 62 62 63 63 64 64 64 64 62 62 62 62 63 64 64 63 63
50 51 53 55 58 60 60 62 63 63 63 64 63 62 62 61 60 61 62 64 65 66
47 48 48 49 50 50 50 51 55 57 57 57 53 37 39 46 60 61 61 62 64 65
45 45 45 46 46 46 47 48 48 47 47 43 38 36 37 37 46 53 57 58 59 61
43 43 44 45 45 45 46 44 41 40 39 40 38 36 36 36 45 48 51 54 56 56
40 40 40 40 41 42 42 41 38 37 36 36 35 35 35 37 43 46 46 38 36 35
38 37 37 37 38 39 39 37 36 35 35 34 35 34 34 37 41 39 37 34 33 33
36 35 37 37 37 37 36 35 34 33 34 33 33 33 33 33 33 32 30 29 29 30

GFSNIL_sfc_temp_078.txt.gz
Temp
68 65 65 66 68 66 63 63 64 60 59 60 59 60 61 61 61 64 64 67 68 70
67 67 65 65 65 64 65 65 62 60 60 60 60 59 59 58 59 59 61 61 63 65
68 68 66 65 65 69 67 65 64 61 59 59 60 61 60 59 60 58 58 60 59 60
68 67 65 65 65 65 64 64 62 64 63 61 59 59 59 59 59 58 59 59 58 59
66 67 67 65 64 64 63 63 64 64 63 61 59 59 59 58 58 57 57 59 59 59
61 61 63 66 68 67 65 63 63 64 62 62 61 61 61 63 63 63 62 61 60 60
58 60 61 63 65 66 67 66 64 64 64 64 65 64 65 66 66 64 63 65 64 64
49 51 52 52 53 57 61 64 68 67 67 66 57 45 47 63 64 62 64 65 65 66
48 47 47 48 48 49 50 50 50 48 47 45 43 37 38 41 56 59 61 61 62 63
48 47 47 48 47 47 46 45 43 43 42 38 37 36 36 36 44 49 51 53 51 54
45 47 49 49 48 46 43 41 39 39 39 38 36 35 35 35 46 49 40 37 37 39
44 44 46 45 44 45 44 41 39 39 38 39 36 35 35 43 49 40 37 36 35 35
41 43 41 42 42 43 43 41 41 40 40 36 39 33 34 40 40 35 34 32 33 32
41 40 40 41 42 41 40 40 39 38 38 37 34 34 33 34 37 33 31 30 30 31

GFSNIL_sfc_temp_084.txt.gz
Temp
69 67 67 66 64 62 60 60 60 59 59 59 60 60 60 61 61 61 61 62 62 62
68 67 65 65 65 64 62 62 60 59 58 59 59 60 60 60 60 61 61 61 61 62
67 67 66 65 64 64 63 62 61 59 58 58 58 58 58 58 59 59 59 59 59 59
66 65 66 66 65 65 64 63 62 61 59 57 57 58 57 57 57 57 56 57 57 57
64 64 64 64 65 64 63 63 62 61 60 59 58 57 57 57 57 57 56 56 56 56
63 63 63 64 64 65 63 61 61 61 60 60 59 58 57 57 56 56 57 57 56 56
54 57 57 59 62 62 62 61 60 59 52 50 48 49 52 58 58 57 58 58 58 57
50 51 53 51 51 51 51 50 51 48 46 44 42 40 41 48 55 58 58 58 59 52
48 48 46 46 45 44 44 43 42 40 39 39 39 37 38 41 52 48 47 45 45 48
46 45 43 43 42 40 40 40 38 38 38 36 36 37 39 40 42 39 38 38 39 41
44 43 43 41 39 39 39 38 38 37 36 35 36 38 38 37 38 36 34 34 36 35
43 43 41 40 39 39 38 36 36 36 35 34 33 36 38 38 36 34 33 33 34 34
40 41 41 41 41 40 40 37 35 34 34 33 33 35 37 38 36 32 31 32 32 34
36 38 38 40 41 40 38 37 35 34 32 32 32 33 35 37 36 32 30 29 29 30

GFSNIL_sfc_temp_087.txt.gz
Temp
63 62 61 62 60 59 60 60 59 59 60 60 61 60 61 60 60 61 59 59 60 60
64 63 60 60 60 60 60 60 59 59 59 60 59 59 60 60 60 60 59 58 59 60
64 62 62 63 61 59 60 61 59 58 58 58 59 59 59 59 59 60 59 58 58 58
64 64 64 63 62 61 60 60 59 59 58 57 57 58 59 59 59 58 58 57 57 57
63 63 62 62 62 62 61 60 59 59 58 58 57 57 57 57 58 58 57 56 56 56
60 61 60 61 61 61 60 59 59 59 59 58 57 57 57 57 57 57 57 56 56 55
55 55 55 56 57 58 59 55 52 50 49 49 49 51 55 57 56 56 56 57 56 56
51 51 49 48 48 48 48 48 48 46 44 43 43 42 45 52 55 56 54 53 47 43
46 45 44 44 43 43 42 41 41 39 40 40 41 38 39 46 45 45 45 44 43 41
43 42 41 41 41 39 38 38 37 37 38 38 39 38 38 39 39 38 37 37 39 38
42 41 41 39 38 37 37 36 35 35 36 36 37 37 36 36 36 34 34 34 34 35
41 40 39 37 36 36 35 34 33 34 34 35 35 37 36 36 34 33 32 33 33 34
37 38 37 36 35 34 33 32 32 31 32 34 33 35 35 35 33 30 30 31 32 34
34 33 35 36 35 34 33 32 31 30 31 32 32 33 35 34 32 30 29 29 29 32

GFSNIL_sfc_temp_090.txt.gz
Temp
61 61 60 59 60 59 59 59 59 60 61 61 61 61 62 61 61 60 60 59 59 59
61 60 59 59 59 59 60 60 59 58 59 59 60 60 60 60 60 60 60 59 59 60
62 61 61 59 59 59 59 60 59 59 58 59 59 59 59 59 60 59 59 59 58 57
61 62 62 60 59 60 59 59 59 59 58 57 58 58 58 58 58 59 58 58 58 57
62 61 61 60 61 60 59 59 59 59 58 58 57 57 58 57 58 58 57 57 57 56
60 60 60 60 60 60 60 59 59 58 58 57 57 57 57 58 58 57 59 58 57 56
54 55 55 55 55 56 55 53 52 51 51 51 51 54 56 57 57 57 57 57 57 57
49 49 49 48 48 47 46 47 47 46 45 45 45 44 48 54 56 55 48 46 45 42
46 45 43 43 42 41 41 41 41 40 41 41 41 39 40 46 46 46 44 41 41 41
41 41 41 40 39 38 37 37 37 38 38 37 37 37 38 38 39 38 38 39 39 39
40 38 38 38 36 35 35 35 35 36 37 36 36 36 36 36 36 34 34 34 36 37
36 35 35 34 33 34 33 33 33 34 35 34 34 35 35 35 33 32 32 33 34 35
35 34 32 32 32 32 32 32 32 31 32 34 33 34 34 34 32 30 31 32 32 33
33 33 33 33 32 32 31 30 30 30 30 31 32 32 33 33 32 30 30 30 30 32

GFSNIL_sfc_temp_093.txt.gz
Temp
60 60 60 59 59 60 61 61 61 61 62 61 61 61 61 61 61 61 60 59 58 58
60 59 59 59 60 61 61 60 60 60 60 60 60 60 60 60 60 60 60 60 58 59
60 59 59 59 57 58 57 58 58 58 58 58 59 59 59 59 60 60 60 59 58 58
59 59 58 58 57 57 57 58 58 58 58 58 58 59 58 58 59 59 59 59 59 58
59 59 59 57 57 58 57 57 57 58 58 58 57 58 57 57 57 58 57 58 58 58
59 60 60 60 59 59 57 58 58 58 57 57 57 57 57 57 57 58 58 58 57 57
58 58 57 56 57 56 55 53 52 52 51 51 52 55 57 57 57 57 57 58 58 57
49 51 50 49 48 48 47 47 47 46 45 44 45 44 45 55 56 51 48 47 45 44
42 43 42 42 42 42 41 41 42 40 39 39 40 38 40 47 48 46 44 41 40 39
38 38 38 38 38 37 37 39 38 37 37 35 36 37 37 38 40 39 39 39 39 38
36 34 35 35 35 35 35 35 36 35 35 34 35 35 36 36 36 35 34 35 37 36
35 33 34 32 32 33 33 33 33 34 34 33 33 35 35 35 34 32 32 34 35 35
33 33 32 32 32 32 32 31 32 31 32 33 32 34 34 34 33 31 31 32 32 33
31 32 32 32 32 31 31 30 30 30 30 31 32 32 34 34 32 31 31 31 31 32

GFSNIL_sfc_temp_096.txt.gz
Temp
59 59 59 60 61 61 61 61 61 61 61 62 60 61 61 61 61 60 60 59 59 59
59 59 59 59 59 61 62 61 61 61 61 61 61 61 61 60 60 60 60 59 59 59
60 59 59 59 59 60 61 61 61 60 60 60 60 60 60 60 60 60 60 60 58 58
58 58 59 59 59 59 59 59 59 59 59 58 58 58 58 59 59 59 59 59 58 58
58 59 58 58 58 57 57 56 57 58 57 58 57 58 57 57 58 58 58 58 59 58
58 58 58 58 57 57 56 55 56 56 57 58 58 57 57 57 57 57 58 59 58 58
48 58 59 59 58 58 58 56 54 53 51 51 51 53 55 57 57 57 57 57 58 58
42 43 47 52 49 49 48 48 48 47 45 45 44 43 44 52 56 54 50 46 45 46
38 39 39 41 42 42 42 41 41 40 39 39 39 38 39 47 48 46 45 42 41 40
38 36 35 35 38 38 38 38 37 36 36 35 36 37 38 38 40 39 39 39 38 38
36 35 34 32 33 34 35 35 34 34 35 34 35 36 36 36 36 36 36 36 36 35
33 33 32 32 32 32 32 32 32 33 33 33 34 35 36 35 34 33 33 34 34 34
32 32 31 31 31 31 32 31 31 31 32 33 33 35 35 35 34 32 31 32 32 33
30 31 30 30 30 30 30 30 30 30 30 31 32 33 34 35 32 31 31 30 30 32

GFSNIL_sfc_temp_099.txt.gz
Temp
65 64 67 68 68 68 67 66 65 64 64 64 66 64 64 63 63 63 61 62 62 61
63 62 63 67 68 67 65 64 62 64 63 63 62 63 64 62 62 62 62 62 61 60
63 63 62 63 62 63 63 61 62 62 62 62 62 65 63 62 62 61 61 62 60 60
61 60 60 61 63 62 61 60 61 62 62 63 62 62 61 61 61 60 60 60 60 59
60 61 61 60 62 61 60 60 61 62 61 61 60 60 59 59 59 60 59 59 59 58
48 57 60 60 60 60 59 59 60 60 60 60 59 59 58 59 61 60 59 60 60 59
43 44 50 60 60 60 60 60 60 59 57 56 54 56 58 58 58 58 60 58 58 59
41 41 41 46 45 57 54 52 51 49 47 46 46 45 47 54 57 58 53 48 46 43
39 39 37 38 39 41 43 43 42 40 40 40 41 38 40 48 50 48 46 43 42 40
37 37 38 37 36 34 36 37 37 37 37 36 38 37 38 39 42 41 40 39 39 39
35 35 36 35 33 32 32 34 34 35 36 36 36 36 37 37 38 36 35 35 36 36
32 31 32 32 32 32 32 32 32 34 34 34 35 36 36 36 36 34 33 34 35 34
31 30 30 30 31 32 32 31 32 31 32 33 33 35 35 36 35 32 32 33 33 34
31 30 30 30 30 30 30 30 30 29 30 30 32 33 35 35 33 32 31 30 30 31

GFSNIL_sfc_temp_102.txt.gz
Temp
70 72 75 72 69 68 68 70 72 68 68 68 68 67 66 66 70 70 67 65 64 62
72 73 69 68 68 68 74 76 73 69 66 64 64 66 65 67 69 66 63 64 65 63
67 68 69 68 68 67 73 72 70 67 66 64 64 65 66 67 66 63 63 64 62 63
63 66 66 66 65 64 66 68 65 65 62 62 63 64 63 63 66 65 62 63 62 63
50 56 61 61 62 64 63 65 66 65 62 61 63 64 64 64 64 62 60 61 60 61
44 46 49 59 61 62 65 66 66 65 63 62 66 65 62 62 61 61 61 61 60 61
43 43 43 47 54 60 63 63 64 65 63 62 61 61 61 60 60 60 63 66 64 65
40 40 41 41 42 46 53 59 59 55 53 54 54 48 51 57 60 59 59 52 51 46
36 40 40 39 38 38 39 42 46 46 47 44 41 38 39 47 55 52 51 47 45 43
34 35 36 37 37 34 35 35 37 39 39 38 38 38 39 40 47 43 42 42 43 43
32 33 34 35 34 33 33 32 32 34 36 36 36 36 37 37 39 38 37 37 38 38
31 31 32 31 32 32 33 32 31 32 34 35 35 36 36 37 35 34 34 35 36 35
32 31 31 31 31 31 31 30 30 29 31 33 33 35 35 36 34 32 32 33 33 33
32 32 32 32 32 32 31 30 29 28 28 29 31 32 34 34 32 31 30 30 30 32

GFSNIL_sfc_temp_105.txt.gz
Temp
51 54 60 67 73 75 74 71 67 66 66 67 69 70 68 69 69 69 68 68 69 68
49 53 63 70 74 74 74 73 67 66 66 66 67 67 67 66 67 68 69 70 68 66
48 52 64 72 73 74 74 73 72 68 66 66 67 69 68 64 67 67 69 70 69 68
46 49 54 68 72 73 74 73 72 70 67 66 67 64 64 67 64 65 67 67 66 64
44 46 48 51 60 70 71 70 72 68 69 69 66 66 60 59 62 64 66 66 63 62
41 43 44 45 49 61 66 65 64 68 68 68 67 65 63 61 60 64 67 67 64 62
38 40 42 42 44 45 51 62 62 65 66 66 66 67 67 64 62 64 65 64 63 63
35 38 40 40 40 41 40 43 52 59 56 58 57 58 62 62 60 60 61 58 57 50
36 35 36 37 38 37 38 37 39 41 45 44 44 39 41 54 56 54 53 48 47 46
33 33 33 35 35 35 36 36 34 35 37 37 38 38 41 42 46 42 42 43 43 44
33 32 32 32 32 32 33 33 32 32 33 35 36 37 38 38 39 38 37 37 38 38
33 33 33 32 31 31 30 30 30 31 31 32 33 35 36 37 35 34 33 34 35 36
33 33 32 32 32 32 31 29 29 29 29 31 31 33 34 35 34 31 31 32 32 33
34 33 33 33 33 33 32 32 30 29 28 28 29 30 33 33 31 30 30 29 29 31

GFSNIL_sfc_temp_108.txt.gz
Temp
46 47 49 50 53 55 59 65 67 67 67 66 66 67 66 66 63 62 61 63 64 64
45 46 47 49 52 56 60 65 68 67 66 66 66 66 63 61 62 63 63 61 63 63
43 46 47 49 51 58 63 68 68 66 66 65 66 65 64 65 66 65 65 65 64 64
42 43 45 46 48 49 53 68 68 67 66 65 64 64 64 65 65 63 62 63 64 63
40 41 43 43 45 48 48 54 67 67 66 65 64 64 63 62 62 62 59 61 61 61
38 38 39 41 42 45 45 48 56 65 64 63 63 62 62 62 62 61 61 59 60 60
36 37 37 39 40 41 43 43 45 54 60 62 63 63 63 61 60 59 59 62 63 62
36 37 36 36 37 38 39 40 40 42 44 46 49 49 55 61 59 59 57 56 53 48
35 35 34 34 34 34 35 36 37 36 38 39 41 38 42 54 59 57 55 48 47 44
34 33 33 33 32 31 31 33 33 34 34 34 35 37 39 42 45 42 41 42 44 43
33 33 33 33 32 30 30 29 29 30 32 33 33 35 35 36 38 36 35 35 36 37
33 32 33 32 32 32 31 29 29 29 29 30 31 34 34 34 34 32 32 33 34 34
33 32 32 32 32 32 32 32 31 29 29 30 29 32 33 32 32 30 30 31 31 33
33 33 32 32 32 32 32 32 31 30 30 30 30 30 32 31 29 29 29 29 29 30

GFSNIL_sfc_temp_111.txt.gz
Temp
44 44 45 46 48 48 49 53 55 56 61 61 63 65 65 64 63 61 63 62 63 63
43 43 43 44 46 48 51 53 56 55 59 59 60 62 65 66 61 60 58 59 62 62
41 42 42 43 45 46 48 50 52 58 59 61 60 63 65 64 62 61 61 61 60 60
39 40 41 41 43 43 45 48 50 53 62 64 65 65 63 62 61 61 60 61 61 61
39 39 39 39 41 42 43 45 47 51 57 64 65 66 62 61 62 62 61 62 62 62
37 37 37 37 38 39 40 42 43 46 48 53 63 64 63 63 63 63 62 61 60 59
36 36 36 36 36 36 38 38 40 41 43 45 45 47 51 61 60 58 58 58 58 58
36 36 36 35 34 34 34 35 37 38 39 39 39 39 41 47 58 56 55 54 51 50
35 35 35 35 33 32 32 32 33 34 35 35 37 37 37 41 57 55 52 47 45 45
34 34 33 34 34 32 30 31 30 31 32 32 34 36 35 36 41 44 43 42 43 42
32 32 33 33 32 32 32 30 29 29 30 31 32 34 34 33 33 33 33 34 35 36
31 30 31 30 31 32 31 30 29 30 30 30 30 33 34 34 31 31 30 32 33 33
32 30 29 29 29 30 30 29 29 28 28 31 30 33 32 31 30 28 29 30 31 33
31 30 28 28 28 28 29 28 28 27 28 28 30 31 33 32 28 27 28 28 29 30

GFSNIL_sfc_temp_114.txt.gz
Temp
43 42 42 42 43 44 46 48 49 50 53 53 55 57 61 63 61 60 61 61 61 62
41 41 40 41 43 44 45 47 47 48 49 52 55 56 59 61 60 61 62 62 63 63
39 40 41 41 40 41 43 44 44 46 48 51 55 56 57 59 62 62 61 62 62 62
38 39 39 39 39 39 40 42 43 44 46 50 52 58 57 59 61 61 61 59 59 62
38 38 37 37 37 38 38 40 41 43 44 46 47 51 60 59 62 60 60 60 58 59
36 36 36 36 36 36 36 37 38 40 41 41 43 44 48 58 60 60 60 61 59 59
35 36 36 36 35 35 35 35 35 37 38 38 40 40 41 46 53 58 61 62 61 61
35 36 36 35 35 35 34 34 34 34 35 35 38 38 37 44 49 51 58 57 56 56
34 34 34 34 34 33 33 33 33 32 33 33 35 36 36 39 38 37 43 49 46 45
32 31 31 32 33 31 30 30 30 30 31 32 33 35 35 35 34 34 33 34 38 41
30 30 30 30 30 29 30 29 28 28 30 31 32 33 34 34 34 32 31 32 32 34
29 27 28 27 27 29 28 28 27 28 28 29 30 34 33 31 31 31 30 31 32 32
30 27 25 25 26 26 27 25 26 26 27 30 29 33 34 32 29 28 29 30 30 32
29 28 27 26 26 25 25 25 25 25 26 27 29 30 34 33 30 28 28 28 28 30

GFSNIL_sfc_temp_117.txt.gz
Temp
41 41 41 41 41 42 42 43 45 46 46 47 49 51 52 54 55 59 61 60 58 60
40 39 39 40 41 41 42 43 44 44 45 46 47 49 52 54 55 58 61 61 59 59
39 39 39 39 38 38 39 40 41 42 43 44 46 49 50 52 56 56 60 61 61 60
38 38 38 37 37 37 37 38 38 40 41 42 42 45 45 46 56 55 58 60 59 59
37 37 37 36 36 36 36 37 37 38 39 39 40 41 42 42 45 56 57 60 59 59
36 36 36 36 36 36 35 36 36 37 36 37 38 39 39 40 43 47 58 59 59 60
34 34 35 35 34 34 34 34 34 35 36 36 37 37 37 38 43 48 53 58 59 60
33 33 34 34 33 32 32 33 33 33 34 35 35 35 35 37 39 40 41 42 46 52
32 31 31 31 30 31 30 30 31 31 32 33 35 35 35 35 35 36 36 36 37 40
28 28 28 29 29 28 28 28 27 28 29 30 32 34 34 34 33 32 33 33 35 35
28 26 26 25 25 25 25 25 25 26 27 28 31 34 33 32 31 31 31 31 32 32
28 25 24 22 22 23 24 24 24 26 27 27 28 33 33 32 30 29 29 30 31 31
28 25 23 22 21 22 22 23 25 25 27 29 27 32 34 32 29 28 28 29 29 31
27 26 24 24 24 23 22 23 23 24 26 27 28 28 32 32 28 27 27 27 27 29

GFSNIL_sfc_temp_120.txt.gz
Temp
40 40 39 40 40 40 40 40 42 43 44 45 46 47 48 49 51 53 54 55 57 62
39 39 38 38 39 38 39 40 40 41 41 43 44 45 46 47 49 51 54 55 56 60
38 38 38 38 36 37 38 38 38 39 40 41 42 43 43 44 46 47 50 56 56 60
37 38 38 37 37 37 37 37 37 38 39 39 39 40 40 41 43 43 46 55 56 59
36 37 36 35 35 35 35 37 37 37 38 38 38 38 38 38 39 41 43 47 55 57
34 34 34 34 34 34 34 35 35 36 36 37 37 37 37 38 39 40 43 45 49 57
32 32 33 33 33 32 33 32 33 34 35 36 36 36 36 37 37 37 39 40 41 43
31 31 31 31 30 31 30 30 31 31 33 34 35 35 34 35 35 35 35 36 38 40
29 29 28 28 28 27 27 28 29 29 30 31 34 34 35 34 33 33 33 32 33 36
28 27 26 26 25 24 24 25 27 28 28 29 31 34 34 34 32 31 30 30 31 33
27 26 25 24 22 22 22 22 24 26 27 27 29 34 33 32 30 30 29 29 30 30
26 23 23 21 20 21 21 22 23 26 25 25 26 33 33 29 28 27 28 29 29 30
27 24 22 21 21 22 15 21 23 23 25 28 25 31 32 29 26 24 26 27 28 31
26 26 24 22 21 21 19 21 21 21 22 24 26 26 31 31 24 23 24 24 24 26

GFSNIL_sfc_temp_123.txt.gz
Temp
42 41 40 40 40 40 40 41 43 42 43 43 44 45 46 47 48 50 51 52 54 56
40 40 39 40 40 40 41 41 41 41 41 42 43 43 44 44 46 47 47 49 51 55
39 39 39 39 37 38 39 39 39 40 40 41 41 41 41 42 43 44 45 47 48 52
37 38 38 37 37 37 38 38 38 38 39 39 39 40 39 40 42 42 44 46 47 49
37 37 36 36 36 36 35 36 36 37 37 38 38 39 38 39 40 39 40 42 43 45
35 35 35 35 36 36 35 35 35 35 35 36 36 37 38 38 37 38 38 38 39 40
34 34 34 36 35 35 35 34 34 34 34 35 36 36 37 38 37 37 37 37 37 37
34 34 34 33 34 34 34 34 34 33 33 34 34 34 35 36 36 36 35 36 36 36
33 32 31 32 32 33 32 33 33 32 32 32 34 34 34 34 34 35 34 34 34 36
30 29 29 30 30 29 29 29 29 30 30 31 33 34 33 33 33 32 32 31 32 32
29 28 28 27 27 27 28 27 27 27 28 29 31 33 32 31 31 31 31 30 31 31
28 26 26 24 26 27 27 26 26 26 26 27 28 32 31 29 30 29 29 30 30 30
29 26 24 25 26 27 27 26 27 25 25 26 27 30 30 29 28 25 27 28 28 29
30 27 26 26 27 27 25 24 24 24 25 24 26 27 29 28 26 24 25 25 25 27

GFSNIL_sfc_temp_129.txt.gz
Temp
47 47 47 45 44 43 43 43 44 43 45 44 45 47 46 47 47 48 47 48 49 50
45 45 44 45 44 43 43 44 43 43 42 44 45 45 45 44 44 44 45 45 45 46
44 45 44 44 42 43 43 43 43 42 42 44 43 43 43 42 42 42 41 42 42 43
44 44 44 43 42 42 42 41 41 41 42 42 42 42 41 41 40 39 39 39 39 38
45 45 44 42 42 42 40 40 40 41 42 42 41 41 41 40 39 38 37 37 37 36
46 46 45 45 45 44 44 43 42 43 42 41 40 40 42 42 41 39 38 37 36 35
44 44 44 44 44 44 44 43 43 44 43 43 40 37 38 41 40 40 39 39 39 37
44 44 43 42 42 43 42 42 42 42 42 42 39 36 35 40 40 38 38 38 38 38
42 42 40 40 40 40 40 39 39 39 39 37 38 33 34 37 37 36 35 34 35 37
38 37 36 37 37 36 35 36 34 34 36 34 33 31 33 35 37 36 34 33 32 34
37 35 36 34 32 32 33 31 31 31 31 33 31 31 31 34 36 34 33 32 30 29
33 31 32 30 31 31 32 31 31 31 30 29 29 30 29 32 34 32 31 32 30 28
33 31 30 31 31 31 31 31 33 31 31 30 28 30 29 28 29 30 30 31 30 28
35 32 32 32 32 31 31 31 31 31 31 30 29 28 29 28 26 27 28 27 26 27

GFSNIL_sfc_temp_132.txt.gz
Temp
45 44 44 43 43 42 41 42 43 43 43 44 44 44 44 44 44 44 43 43 42 43
44 43 43 43 43 42 42 43 42 42 42 43 43 43 43 42 41 42 41 40 41 40
44 44 43 43 41 41 41 41 41 41 42 41 41 42 42 41 41 40 39 40 39 38
43 44 43 42 42 41 41 42 41 42 41 40 39 40 41 40 40 38 38 38 37 36
45 45 44 42 42 42 42 42 42 42 41 39 37 38 38 39 40 38 37 37 36 35
44 43 42 42 42 42 42 42 42 41 39 37 36 36 37 40 39 38 37 37 35 34
42 42 41 42 41 41 41 40 40 39 37 36 34 35 36 39 38 37 37 36 37 34
41 41 40 39 39 39 38 38 39 38 35 34 33 34 33 37 35 34 33 33 34 33
39 39 37 37 36 36 35 34 34 34 33 30 33 32 34 36 35 33 30 27 28 31
37 35 34 35 34 32 31 31 30 30 31 28 29 31 33 35 32 30 28 25 24 27
35 34 32 31 30 30 30 28 27 27 27 27 29 31 31 32 30 30 28 26 24 23
32 30 30 26 28 29 30 28 27 27 26 24 25 31 30 27 27 26 25 25 24 24
31 27 24 28 26 29 30 28 30 27 26 28 23 30 30 26 23 23 23 22 22 28
33 31 31 29 29 28 28 28 29 28 25 24 24 24 30 29 22 22 22 21 21 22

GFSNIL_sfc_temp_135.txt.gz
Temp
43 42 42 41 41 40 40 40 42 41 42 42 43 43 43 42 42 42 41 40 40 40
43 42 41 41 41 40 41 42 41 42 41 41 41 42 42 40 40 40 40 39 39 38
42 42 42 41 40 40 40 41 42 41 39 38 38 38 41 39 40 39 38 38 37 37
42 42 41 41 41 40 38 39 40 38 36 36 36 37 38 39 38 37 37 36 35 34
39 39 37 37 37 37 37 38 37 36 33 34 35 36 37 37 37 35 34 34 33 31
37 37 36 36 36 36 36 36 36 35 33 32 33 33 35 36 35 33 33 34 30 29
36 36 35 35 35 34 35 34 33 32 31 31 32 33 34 36 33 30 29 30 30 29
35 35 35 34 33 32 31 32 33 30 29 30 31 34 34 34 31 28 27 28 28 29
34 34 32 31 31 30 29 29 29 28 28 28 32 33 35 33 29 28 26 25 26 28
32 30 29 30 29 28 26 27 26 26 26 26 28 32 32 32 28 27 25 24 24 27
31 29 28 27 25 24 25 20 20 22 23 24 29 30 29 29 26 24 23 23 24 23
29 26 25 18 18 20 24 22 21 22 21 20 21 30 29 24 23 20 19 23 23 24
28 22 15 15 17 20 22 25 24 21 19 25 19 30 30 23 20 19 20 21 21 29
28 26 24 22 20 19 20 25 23 19 18 17 21 20 29 29 15 18 20 20 20 21

GFSNIL_sfc_temp_138.txt.gz
Temp
39 38 36 40 38 36 38 39 40 40 40 40 40 41 42 41 41 40 39 38 38 39
41 41 39 40 40 37 38 40 37 38 37 38 38 38 40 38 38 39 38 36 36 36
42 40 41 40 37 36 36 37 35 37 37 36 37 37 38 37 37 36 33 34 32 33
39 37 37 35 35 35 35 35 33 33 32 33 35 36 35 35 34 33 31 31 30 31
36 36 35 34 34 34 33 33 33 32 31 32 33 33 33 32 32 30 31 29 29 29
35 34 33 33 33 33 32 31 30 30 30 31 32 33 33 30 29 28 28 29 28 28
33 33 32 32 31 31 32 29 28 29 29 31 33 33 32 29 28 28 27 28 29 29
32 33 31 30 29 29 30 28 28 29 29 31 33 33 29 28 27 27 27 28 29 30
32 31 30 29 28 28 27 27 27 27 28 28 32 33 32 29 26 26 26 26 27 29
31 30 29 29 28 26 24 24 23 24 26 26 29 31 30 28 25 24 23 22 24 28
29 28 27 26 24 22 20 14 14 19 20 24 28 30 29 27 23 22 22 22 24 22
28 26 26 20 19 19 20 15 12 15 19 19 21 29 28 24 20 18 18 22 23 23
27 23 19 15 20 19 17 14 18 16 15 24 16 30 28 20 16 15 17 18 20 29
28 26 24 20 17 24 20 14 12 12 11 13 19 21 29 28 12 11 17 18 17 21